DB0TGO-13 Weather Reports


time (UTC)temp
C
wind
direction
speed
KPH
gust
KPH
rain 1hr
cm
rain 24hr
cm
rain mn
cm
humidity
%
barometer
mb
20260505090002 15 90 4.8 0.0 0.00 0.00 0.00 80 1004.2
20260505084502 15 90 6.4 0.0 0.00 0.00 0.00 79 1004.3
20260505083002 15 90 6.4 0.0 0.00 0.00 0.00 79 1004.3
20260505081502 14 90 6.4 0.0 0.00 0.00 0.00 79 1004.2
20260505080002 14 80 11.3 0.0 0.00 0.00 0.00 79 1004.2
20260505074502 14 80 11.3 0.0 0.00 0.00 0.00 80 1004.2
20260505073002 14 70 9.7 0.0 0.00 0.00 0.00 80 1004.2
20260505071502 13 60 11.3 0.0 0.00 0.00 0.00 80 1004.3
20260505070002 13 60 11.3 0.0 0.00 0.00 0.00 80 1004.3
20260505064502 13 60 11.3 0.0 0.00 0.00 0.00 82 1004.6
20260505063002 13 50 9.7 0.0 0.00 0.00 0.00 82 1004.6
20260505061502 13 50 9.7 0.0 0.00 0.00 0.00 82 1004.5
20260505060002 13 40 9.7 0.0 0.00 0.00 0.00 82 1004.5
20260505054502 13 40 9.7 0.0 0.00 0.00 0.00 80 1004.5
20260505053002 13 30 6.4 0.0 0.00 0.00 0.00 80 1004.5
20260505051502 13 30 6.4 0.0 0.00 0.00 0.00 83 1004.7
20260505041502 13 30 6.4 0.0 0.00 0.00 0.00 81 1004.8
20260505040003 13 30 6.4 0.0 0.00 0.00 0.00 81 1004.8
20260505034502 13 10 3.2 0.0 0.00 0.00 0.00 81 1004.9
20260505033002 13 10 3.2 0.0 0.00 0.00 0.00 81 1004.9
20260505031502 13 10 3.2 0.0 0.00 0.00 0.00 77 1005.3
20260505030003 13 90 4.8 0.0 0.00 0.00 0.00 77 1005.3
20260504204502 16 30 8.0 0.0 0.00 0.00 0.00 66 1006.4
20260504203002 16 20 6.4 0.0 0.00 0.00 0.00 66 1006.4
20260504201502 16 360 6.4 0.0 0.00 0.00 0.00 68 1006.3
20260504200002 16 360 6.4 0.0 0.00 0.00 0.00 68 1006.3
20260504194502 17 360 6.4 0.0 0.00 0.00 0.00 66 1006.2
20260504193002 17 350 8.0 0.0 0.00 0.00 0.00 66 1006.2
20260504191502 17 350 8.0 0.0 0.00 0.00 0.00 65 1006.1
20260504190002 17 340 9.7 0.0 0.00 0.00 0.00 65 1006.1
20260504184502 18 340 9.7 0.0 0.00 0.00 0.00 62 1006.0
20260504183002 18 340 9.7 0.0 0.00 0.00 0.00 62 1006.0
20260504181503 20 340 9.7 0.0 0.00 0.00 0.00 58 1005.9
20260504180002 20 350 8.0 0.0 0.00 0.00 0.00 58 1005.9
20260504174502 20 350 8.0 0.0 0.00 0.00 0.00 55 1005.9
20260504173003 20 320 9.7 0.0 0.00 0.00 0.00 55 1005.9
20260504171502 20 320 9.7 0.0 0.00 0.00 0.00 54 1005.8